VE2EEG Weather Reports


time (UTC)temp
C
wind
direction
speed
KPH
gust
KPH
rain 1hr
cm
rain 24hr
cm
rain mn
cm
humidity
%
barometer
mb
20260506015505 11 223 6.4 16.1 0.00 0.46 0.46 89 1001.0
20260506015004 11 206 3.2 16.1 0.00 0.46 0.46 89 1001.0
20260506014521 11 173 6.4 16.1 0.00 0.46 0.46 90 1001.2
20260506014004 11 146 6.4 17.7 0.00 0.46 0.46 91 1001.2
20260506013505 11 138 4.8 17.7 0.00 0.46 0.46 92 1001.4
20260506013021 10 167 3.2 8.0 0.00 0.46 0.46 91 1001.5
20260506012507 10 118 1.6 4.8 0.00 0.46 0.46 90 1001.6
20260506012009 10 157 1.6 3.2 0.00 0.46 0.46 90 1002.0
20260506011526 10 226 0.0 3.2 0.00 0.46 0.46 90 1001.9
20260506011009 10 226 0.0 3.2 0.00 0.46 0.46 90 1001.8
20260506010507 10 226 0.0 3.2 0.00 0.46 0.46 90 1001.8
20260506010032 10 226 0.0 3.2 0.00 0.46 0.46 90 1001.7
20260506005508 10 226 0.0 3.2 0.00 0.46 0.46 89 1001.5
20260506005006 10 226 0.0 3.2 0.00 0.46 0.46 89 1001.3
20260506004511 10 226 0.0 3.2 0.00 0.46 0.46 89 1001.2
20260506004004 10 226 0.0 3.2 0.00 0.46 0.46 89 1001.2
20260506003504 10 221 0.0 4.8 0.00 0.46 0.46 88 1001.3
20260506003017 10 169 0.0 6.4 0.00 0.46 0.46 89 1001.0
20260506002508 10 162 1.6 6.4 0.00 0.46 0.46 89 1000.9
20260506002007 10 165 0.0 4.8 0.00 0.46 0.46 89 1000.8
20260506001521 10 218 1.6 6.4 0.00 0.46 0.46 89 1000.9
20260506001008 10 172 3.2 6.4 0.03 0.46 0.46 89 1000.4
20260506000509 10 150 1.6 8.0 0.00 0.43 0.43 89 1000.2
20260506000024 10 141 3.2 8.0 0.08 0.43 0.43 89 1000.4
20260505235509 10 145 1.6 8.0 0.10 0.43 0.43 89 1000.3
20260505235012 10 203 1.6 8.0 0.15 0.43 0.43 89 1000.4
20260505234529 10 188 1.6 8.0 0.18 0.43 0.43 89 1000.5
20260505234003 10 204 4.8 12.9 0.18 0.43 0.43 88 1000.1
20260505233507 10 145 3.2 12.9 0.18 0.43 0.43 89 1000.2
20260505233013 10 144 3.2 9.7 0.18 0.43 0.43 88 1000.4
20260505232503 10 138 3.2 6.4 0.18 0.43 0.43 88 1000.4
20260505232007 10 115 1.6 3.2 0.18 0.43 0.43 88 1000.5
20260505231524 10 107 0.0 3.2 0.18 0.43 0.43 88 1000.4
20260505231006 10 156 0.0 6.4 0.18 0.41 0.41 88 1000.2
20260505230506 10 229 0.0 6.4 0.18 0.41 0.41 87 1000.2
20260505230024 10 267 1.6 14.5 0.13 0.36 0.36 87 1000.5
20260505225509 10 232 3.2 16.1 0.28 0.30 0.30 86 1000.3
20260505225009 10 265 9.7 24.1 0.23 0.28 0.28 85 1000.3
20260505224531 11 265 8.0 35.4 0.20 0.25 0.25 85 1000.3
20260505224011 11 262 12.9 35.4 0.18 0.23 0.23 84 1000.2
20260505223513 12 247 17.7 37.0 0.18 0.23 0.23 82 999.6
20260505223012 13 260 16.1 37.0 0.18 0.23 0.23 83 999.5
20260505222505 14 250 19.3 32.2 0.18 0.23 0.23 80 999.3
20260505222007 15 259 14.5 40.2 0.18 0.23 0.23 78 998.8
20260505221516 15 244 19.3 40.2 0.18 0.23 0.23 76 998.4
20260505221006 16 232 20.9 41.8 0.18 0.23 0.23 75 998.2
20260505220506 16 242 20.9 41.8 0.18 0.23 0.23 76 998.2
20260505220019 17 222 19.3 33.8 0.18 0.20 0.20 72 997.7
20260505215508 18 180 14.5 30.6 0.00 0.03 0.03 66 996.5
20260505215010 18 203 17.7 35.4 0.00 0.03 0.03 66 996.5
20260505214531 18 197 14.5 35.4 0.00 0.03 0.03 66 996.7
20260505214012 18 262 12.9 37.0 0.00 0.03 0.03 66 996.8
20260505213510 19 223 20.9 37.0 0.00 0.03 0.03 66 996.6
20260505213028 19 180 14.5 38.6 0.00 0.03 0.03 66 996.6
20260505212515 19 148 16.1 38.6 0.00 0.03 0.03 66 996.6
20260505212004 19 189 16.1 46.7 0.00 0.03 0.03 64 996.4
20260505211531 20 193 14.5 46.7 0.00 0.03 0.03 63 996.3
20260505211004 20 188 20.9 46.7 0.00 0.03 0.03 62 996.5
20260505210508 20 202 20.9 40.2 0.00 0.03 0.03 62 996.4
20260505210020 20 170 14.5 38.6 0.00 0.03 0.03 64 996.4
20260505205508 20 214 16.1 38.6 0.00 0.03 0.03 65 996.3
20260505205007 20 226 16.1 33.8 0.00 0.03 0.03 65 996.3
20260505204525 19 205 17.7 32.2 0.00 0.03 0.03 67 996.5
20260505204006 19 194 11.3 27.4 0.00 0.03 0.03 68 996.6
20260505203506 18 178 12.9 29.0 0.00 0.03 0.03 70 996.5
20260505203041 18 192 14.5 30.6 0.00 0.03 0.03 70 996.6
20260505202508 18 217 11.3 30.6 0.00 0.03 0.03 71 996.7
20260505202017 18 209 12.9 32.2 0.00 0.03 0.03 71 996.9
20260505201528 18 217 16.1 32.2 0.00 0.03 0.03 70 997.0
20260505201013 18 200 11.3 30.6 0.00 0.03 0.03 71 997.1
20260505200504 18 221 14.5 30.6 0.03 0.03 0.03 72 997.2
20260505200019 18 223 11.3 20.9 0.03 0.03 0.03 71 997.2
20260505195505 18 207 9.7 19.3 0.03 0.03 0.03 73 997.0
20260505195009 17 211 6.4 20.9 0.03 0.03 0.03 73 997.2
20260505194524 17 159 8.0 20.9 0.03 0.03 0.03 72 997.3
20260505194011 17 200 6.4 22.5 0.03 0.03 0.03 72 997.3
20260505193508 17 223 9.7 24.1 0.03 0.03 0.03 72 997.4
20260505193026 17 203 11.3 25.7 0.03 0.03 0.03 71 997.4
20260505192509 17 256 14.5 27.4 0.03 0.03 0.03 71 997.3
20260505192013 17 198 14.5 27.4 0.03 0.03 0.03 70 997.2
20260505191527 18 237 17.7 30.6 0.03 0.03 0.03 67 997.2
20260505191010 18 239 16.1 35.4 0.00 0.00 0.00 66 997.1
20260505190515 20 246 24.1 35.4 0.00 0.00 0.00 59 996.9
20260505190027 21 217 16.1 33.8 0.00 0.00 0.00 51 996.7
20260505185507 21 250 17.7 33.8 0.00 0.00 0.00 48 996.3
20260505185008 21 214 14.5 40.2 0.00 0.00 0.00 47 996.4
20260505184526 22 190 22.5 40.2 0.00 0.00 0.00 46 996.4
20260505184009 22 200 11.3 38.6 0.00 0.00 0.00 45 996.4
20260505183510 22 223 19.3 40.2 0.00 0.00 0.00 45 996.3
20260505183030 22 190 17.7 40.2 0.00 0.00 0.00 45 996.5
20260505182507 22 199 16.1 33.8 0.00 0.00 0.00 45 996.5
20260505182013 21 218 14.5 30.6 0.00 0.00 0.00 57 996.4
20260505181526 19 261 17.7 30.6 0.00 0.00 0.00 57 996.4
20260505181008 17 333 4.8 14.5 0.00 0.00 0.00 57 996.5
20260505180513 17 317 6.4 11.3 0.00 0.00 0.00 55 996.6
20260505180030 17 13 1.6 8.0 0.00 0.00 0.00 56 996.7
20260505175510 17 352 1.6 6.4 0.00 0.00 0.00 57 996.8
20260505175010 17 44 3.2 8.0 0.00 0.00 0.00 57 996.9
20260505174519 16 273 1.6 9.7 0.00 0.00 0.00 57 997.1
20260505174007 16 245 3.2 11.3 0.00 0.00 0.00 57 997.3
20260505173508 16 279 3.2 11.3 0.00 0.00 0.00 58 997.3
20260505173022 16 282 3.2 9.7 0.00 0.00 0.00 58 997.5
20260505172511 16 278 3.2 12.9 0.00 0.00 0.00 58 997.6
20260505172014 16 211 1.6 11.3 0.00 0.00 0.00 60 997.6
20260505171528 15 275 4.8 9.7 0.00 0.00 0.00 59 997.6
20260505171010 15 277 3.2 11.3 0.00 0.00 0.00 57 997.6
20260505170512 16 217 3.2 11.3 0.00 0.00 0.00 54 997.6
20260505170012 16 273 3.2 12.9 0.00 0.00 0.00 53 997.6
20260505165506 17 345 3.2 12.9 0.00 0.00 0.00 53 997.5
20260505165007 16 317 4.8 12.9 0.00 0.00 0.00 54 997.6
20260505164517 16 285 4.8 12.9 0.00 0.00 0.00 54 997.7
20260505164007 16 347 6.4 12.9 0.00 0.00 0.00 53 997.9
20260505163507 16 273 4.8 12.9 0.00 0.00 0.00 53 997.9
20260505163027 17 350 4.8 11.3 0.00 0.00 0.00 54 997.8
20260505162510 16 287 3.2 9.7 0.00 0.00 0.00 56 998.0
20260505162011 16 332 4.8 8.0 0.00 0.00 0.00 57 997.9
20260505161526 15 336 4.8 6.4 0.00 0.00 0.00 59 998.2
20260505161010 13 322 3.2 6.4 0.00 0.00 0.00 62 998.5
20260505160513 13 99 3.2 14.5 0.00 0.00 0.00 61 998.6
20260505153021 14 341 8.0 16.1 0.00 0.00 0.00 998.9
20260505152511 14 323 3.2 12.9 0.00 0.00 0.00 57 998.7
20260505152009 14 352 6.4 12.9 0.00 0.00 0.00 57 998.6
20260505151532 14 342 1.6 16.1 0.00 0.00 0.00 58 998.7
20260505151006 14 279 1.6 16.1 0.00 0.00 0.00 57 998.7
20260505150509 15 295 6.4 9.7 0.00 0.00 0.00 57 998.8
20260505140510 14 132 8.0 16.1 0.00 0.00 0.00 57 999.9
20260505125004 15 163 12.9 24.1 0.00 0.00 0.00 58 1000.3
20260505124512 14 215 12.9 24.1 0.00 0.00 0.00 58 1000.5
20260505124003 14 117 9.7 20.9 0.00 0.00 0.00 59 1000.5
20260505123505 13 156 9.7 19.3 0.00 0.00 0.00 59 1000.6
20260505123014 13 232 9.7 22.5 0.00 0.00 0.00 60 1000.6
20260505122506 13 140 12.9 27.4 0.00 0.00 0.00 61 1000.6
20260505122007 12 139 8.0 27.4 0.00 0.00 0.00 62 1000.7
20260505121520 12 136 11.3 25.7 0.00 0.00 0.00 62 1000.9
20260505121007 12 200 12.9 25.7 0.00 0.00 0.00 62 1001.0
20260505120504 12 188 9.7 25.7 0.00 0.00 0.00 63 1001.1
20260505120010 12 186 8.0 24.1 0.00 0.00 0.00 63 1001.3
20260505115501 11 164 8.0 24.1 0.00 0.00 0.00 63 1001.5
20260505115002 11 190 11.3 22.5 0.00 0.00 0.00 63 1001.7
20260505114508 11 190 11.3 22.5 0.00 0.00 0.00 64 1001.9
20260505114002 11 161 11.3 22.5 0.00 0.00 0.00 65 1001.8
20260505113507 11 152 8.0 22.5 0.00 0.00 0.00 65 1001.8
20260505113019 11 264 11.3 24.1 0.00 0.00 0.00 65 1001.7
20260505112504 11 186 8.0 24.1 0.00 0.00 0.00 66 1001.8
20260505112004 10 163 9.7 20.9 0.00 0.00 0.00 66 1001.8
20260505111535 10 210 9.7 20.9 0.00 0.00 0.00 67 1001.9
20260505111006 10 161 14.5 25.7 0.00 0.00 0.00 68 1001.9
20260505110507 9 200 11.3 25.7 0.00 0.00 0.00 68 1002.0
20260505102004 8 170 12.9 24.1 0.00 0.00 0.00 68 1002.3
20260505101523 8 192 9.7 19.3 0.00 0.00 0.00 69 1002.4
20260505101005 8 196 11.3 24.1 0.00 0.00 0.00 69 1002.4
20260505100505 8 211 9.7 25.7 0.00 0.00 0.00 70 1002.4
20260505100022 7 112 12.9 25.7 0.00 0.00 0.00 70 1002.6
20260505095508 7 154 14.5 32.2 0.00 0.00 0.00 70 1002.5
20260505095010 7 171 16.1 32.2 0.00 0.00 0.00 71 1002.4
20260505094527 7 165 11.3 25.7 0.00 0.00 0.00 71 1002.1
20260505094002 7 198 12.9 24.1 0.00 0.00 0.00 71 1002.1
20260505093501 7 219 8.0 25.7 0.00 0.00 0.00 72 1002.2
20260505093008 7 179 11.3 25.7 0.00 0.00 0.00 72 1002.2
20260505092504 7 174 8.0 22.5 0.00 0.00 0.00 72 1002.2
20260505092004 7 146 9.7 25.7 0.00 0.00 0.00 71 1002.4
20260505091511 7 159 11.3 25.7 0.00 0.00 0.00 71 1002.4
20260505091007 7 161 12.9 24.1 0.00 0.00 0.00 71 1002.6
20260505090504 7 113 6.4 30.6 0.00 0.00 0.00 71 1002.7
20260505090023 7 137 11.3 30.6 0.00 0.00 0.00 71 1002.7
20260505085508 7 164 12.9 24.1 0.00 0.00 0.00 71 1002.7
20260505085006 7 192 9.7 24.1 0.00 0.00 0.00 71 1003.0
20260505084529 7 175 9.7 16.1 0.00 0.00 0.00 72 1003.1
20260505084008 7 219 6.4 12.9 0.00 0.00 0.00 73 1003.1
20260505083507 7 200 3.2 12.9 0.00 0.00 0.00 73 1003.0
20260505083010 6 153 3.2 17.7 0.00 0.00 0.00 73 1003.1
20260505082503 6 189 8.0 22.5 0.00 0.00 0.00 73 1003.2
20260505082003 7 198 9.7 22.5 0.00 0.00 0.00 72 1003.3
20260505081512 7 164 12.9 22.5 0.00 0.00 0.00 72 1003.3
20260505081004 7 192 8.0 22.5 0.00 0.00 0.00 72 1003.1
20260505080510 7 184 9.7 22.5 0.00 0.00 0.00 73 1003.1
20260505080024 6 187 9.7 20.9 0.00 0.00 0.00 73 1003.1
20260505075507 6 185 6.4 20.9 0.00 0.00 0.00 73 1003.5
20260505075007 6 169 8.0 19.3 0.00 0.00 0.00 73 1004.0
20260505074523 6 186 8.0 17.7 0.00 0.00 0.00 73 1004.2
20260505074007 6 188 8.0 17.7 0.00 0.00 0.00 73 1004.0
20260505073509 6 150 11.3 19.3 0.00 0.00 0.00 73 1004.0
20260505073023 7 157 9.7 20.9 0.00 0.00 0.00 73 1003.9
20260505072508 7 196 9.7 20.9 0.00 0.00 0.00 72 1003.7
20260505072007 7 203 9.7 17.7 0.00 0.00 0.00 72 1003.4
20260505071507 7 177 9.7 17.7 0.00 0.00 0.00 72 1003.1
20260505071004 7 186 6.4 17.7 0.00 0.00 0.00 72 1003.0
20260505070504 7 188 9.7 19.3 0.00 0.00 0.00 72 1003.1
20260505070022 7 161 6.4 19.3 0.00 0.00 0.00 72 1003.1
20260505065504 7 178 6.4 17.7 0.00 0.00 0.00 72 1003.1
20260505065006 7 145 8.0 14.5 0.00 0.00 0.00 72 1003.2
20260505064519 7 176 6.4 14.5 0.00 0.00 0.00 73 1003.4
20260505064008 7 166 4.8 11.3 0.00 0.00 0.00 72 1003.3
20260505063507 7 167 3.2 16.1 0.00 0.00 0.00 72 1003.5
20260505063025 7 186 8.0 16.1 0.00 0.00 0.00 72 1003.6
20260505062507 7 168 6.4 19.3 0.00 0.00 0.00 72 1003.5
20260505062010 7 168 8.0 19.3 0.00 0.00 0.00 72 1003.4
20260505061534 7 169 6.4 16.1 0.00 0.00 0.00 72 1003.5
20260505061008 7 186 6.4 16.1 0.00 0.00 0.00 73 1003.5
20260505060511 7 222 9.7 16.1 0.00 0.00 0.00 72 1003.6
20260505060012 7 173 9.7 19.3 0.00 0.00 0.00 72 1003.7
20260505055505 7 144 8.0 19.3 0.00 0.00 0.00 71 1003.8
20260505055007 7 171 8.0 17.7 0.00 0.00 0.00 71 1003.8
20260505054524 7 134 8.0 16.1 0.00 0.00 0.00 71 1003.8
20260505054009 7 191 8.0 22.5 0.00 0.00 0.00 71 1003.9
20260505053507 7 183 8.0 22.5 0.00 0.00 0.00 70 1003.9
20260505053026 7 184 9.7 20.9 0.00 0.00 0.00 70 1003.9
20260505052507 7 177 9.7 20.9 0.00 0.00 0.00 70 1003.9
20260505052011 7 175 8.0 16.1 0.00 0.00 0.00 69 1003.9
20260505051526 7 184 8.0 16.1 0.00 0.00 0.00 69 1003.9
20260505051011 7 185 9.7 16.1 0.00 0.00 0.00 69 1003.9
20260505050514 7 169 6.4 14.5 0.00 0.00 0.00 69 1003.8
20260505041504 7 210 8.0 14.5 0.00 0.00 0.00 70 1004.1
20260505041003 7 184 6.4 14.5 0.00 0.00 0.00 70 1004.0
20260505040504 7 184 6.4 14.5 0.00 0.00 0.00 70 1003.9
20260505040011 7 175 6.4 12.9 0.00 0.00 0.00 70 1003.9
20260505035508 7 180 4.8 14.5 0.00 0.00 0.00 69 1004.0
20260505035004 7 191 6.4 14.5 0.00 0.00 0.00 69 1003.8
20260505034504 7 218 3.2 8.0 0.00 0.00 0.00 69 1003.8
20260505034003 7 165 3.2 9.7 0.00 0.00 0.00 69 1003.7
20260505033504 7 229 1.6 9.7 0.00 0.00 0.00 68 1003.6
20260505033011 7 174 4.8 12.9 0.00 0.00 0.00 68 1003.7
20260505032502 7 150 1.6 12.9 0.00 0.00 0.00 68 1003.7
20260505032003 7 168 1.6 8.0 0.00 0.00 0.00 68 1003.6
20260505031502 7 186 3.2 11.3 0.00 0.00 0.00 68 1003.6
20260505031002 7 180 3.2 11.3 0.00 0.00 0.00 67 1003.6
20260505030503 7 156 4.8 8.0 0.00 0.00 0.00 67 1003.7
20260505030013 7 203 1.6 8.0 0.00 0.00 0.00 67 1003.6
20260505025504 7 175 3.2 12.9 0.00 0.00 0.00 67 1003.6
20260505025002 7 163 1.6 12.9 0.00 0.00 0.00 67 1003.5
20260505024505 7 165 3.2 12.9 0.00 0.00 0.00 67 1003.4
20260505024002 7 199 4.8 12.9 0.00 0.00 0.00 67 1003.5
20260505023502 7 183 4.8 12.9 0.00 0.00 0.00 67 1003.5
20260505023007 7 167 4.8 12.9 0.00 0.00 0.00 67 1003.6
20260505022501 7 155 3.2 11.3 0.00 0.00 0.00 67 1003.6
20260505022001 7 167 6.4 9.7 0.00 0.00 0.00 67 1003.6
20260505021506 7 173 3.2 8.0 0.00 0.00 0.00 67 1003.6
20260505021001 8 169 3.2 9.7 0.00 0.00 0.00 67 1003.6
20260505020502 8 169 3.2 9.7 0.00 0.00 0.00 66 1003.6
20260505020007 7 198 0.0 4.8 0.00 0.00 0.00 66 1003.5